DLH62A LEMG-EDDF

Flight info

Callsign DLH62A
Flight time 2h 49m
Altitude 36000
Route BLN L27 ANZAN/N0438F380 L27 YAKXU DCT RONNY DCT TOPTU DCT TOU DCT GAI DCT MEN DCT NINUN DCT LATAM DCT ETREK DCT LTP DCT SOPLO DCT OMASI DCT KINNI DCT SOSAL DCT KORED DCT BERSU DCT DITON/N0441F390 DCT LADOL/N0439F380 T163 EMPAX EMPAX5C
Aircraft A320/M-SDE2E3FGIJ1LORWXYZ/HB1

Departure

Time 2026-04-15 08:34
Airport Málaga-Costa del Sol Airport (LEMG)

Arrival

Time 2026-04-15 11:24
Airport Frankfurt Main Airport (EDDF)
Time Latitude Longitude Altitude Speed Heading
2026-04-15 08:09 36.67799 -4.49654 42 ft 0 kts 131°
2026-04-15 08:25 36.67814 -4.49676 41 ft 4 kts 130°
2026-04-15 08:25 36.67831 -4.49702 42 ft 4 kts 128°
2026-04-15 08:25 36.67847 -4.49729 42 ft 4 kts 121°
2026-04-15 08:25 36.67858 -4.49759 42 ft 4 kts 98°
2026-04-15 08:26 36.67855 -4.49784 42 ft 4 kts 55°
2026-04-15 08:26 36.67839 -4.49807 42 ft 2 kts 41°
2026-04-15 08:26 36.67838 -4.49808 42 ft 0 kts 41°
2026-04-15 08:28 36.67839 -4.49807 42 ft 2 kts 41°
2026-04-15 08:29 36.67874 -4.49768 40 ft 11 kts 41°
2026-04-15 08:29 36.67946 -4.49689 41 ft 15 kts 41°
2026-04-15 08:29 36.68029 -4.49597 42 ft 17 kts 41°
2026-04-15 08:29 36.68122 -4.49495 42 ft 19 kts 41°
2026-04-15 08:30 36.68221 -4.49384 40 ft 17 kts 41°
2026-04-15 08:30 36.68281 -4.49308 40 ft 11 kts 66°
2026-04-15 08:30 36.68267 -4.49228 40 ft 10 kts 117°
2026-04-15 08:30 36.68236 -4.49154 40 ft 11 kts 117°
2026-04-15 08:31 36.68190 -4.49045 40 ft 16 kts 117°
2026-04-15 08:31 36.68137 -4.48917 40 ft 18 kts 117°
2026-04-15 08:31 36.68078 -4.48774 37 ft 20 kts 118°
2026-04-15 08:31 36.68010 -4.48618 40 ft 21 kts 118°
2026-04-15 08:32 36.67939 -4.48448 40 ft 23 kts 118°
2026-04-15 08:32 36.67862 -4.48267 38 ft 21 kts 117°
2026-04-15 08:32 36.67810 -4.48138 37 ft 12 kts 111°
2026-04-15 08:32 36.67854 -4.48069 36 ft 11 kts 18°
2026-04-15 08:33 36.67912 -4.48031 35 ft 8 kts 27°
2026-04-15 08:33 36.67947 -4.48031 38 ft 4 kts 317°
2026-04-15 08:33 36.67965 -4.48067 38 ft 12 kts 298°
2026-04-15 08:33 36.68129 -4.48459 37 ft 88 kts 297°
2026-04-15 08:34 36.68513 -4.49369 47 ft 146 kts 298°
2026-04-15 08:34 36.69034 -4.50585 449 ft 162 kts 299°
2026-04-15 08:34 36.69630 -4.51770 1112 ft 162 kts 313°
2026-04-15 08:34 36.70437 -4.52828 1614 ft 178 kts 314°
2026-04-15 08:35 36.71346 -4.54014 1949 ft 201 kts 313°
2026-04-15 08:35 36.72363 -4.55344 2470 ft 217 kts 313°
2026-04-15 08:35 36.73409 -4.56714 3364 ft 218 kts 313°
2026-04-15 08:35 36.74455 -4.58090 4213 ft 220 kts 313°
2026-04-15 08:36 36.75646 -4.59306 4981 ft 225 kts 333°
2026-04-15 08:36 36.77136 -4.59938 5757 ft 228 kts 344°
2026-04-15 08:36 36.78670 -4.60482 6573 ft 230 kts 344°
2026-04-15 08:36 36.80234 -4.60925 7365 ft 232 kts 357°
2026-04-15 08:37 36.81839 -4.60676 8113 ft 237 kts 19°
2026-04-15 08:37 36.83312 -4.59605 8561 ft 255 kts 42°
2026-04-15 08:37 36.84643 -4.58104 9323 ft 260 kts 42°
2026-04-15 08:37 36.86003 -4.56590 10142 ft 263 kts 41°
2026-04-15 08:38 36.87379 -4.55068 10973 ft 264 kts 40°
2026-04-15 08:38 36.88767 -4.53542 11782 ft 267 kts 39°
2026-04-15 08:38 36.90169 -4.52004 12580 ft 269 kts 38°
2026-04-15 08:38 36.91581 -4.50454 13361 ft 272 kts 38°
2026-04-15 08:39 36.93009 -4.48886 14092 ft 275 kts 38°
2026-04-15 08:39 36.94452 -4.47300 14812 ft 278 kts 38°
2026-04-15 08:39 36.95911 -4.45691 15527 ft 282 kts 38°
2026-04-15 08:39 36.97388 -4.44061 16215 ft 285 kts 38°
2026-04-15 08:40 36.98977 -4.42562 16745 ft 292 kts 30°
2026-04-15 08:40 37.00756 -4.41137 16882 ft 315 kts 30°
2026-04-15 08:40 37.02671 -4.39629 17011 ft 336 kts 30°
2026-04-15 08:40 37.04698 -4.38035 17287 ft 350 kts 30°
2026-04-15 08:41 37.06745 -4.36417 17825 ft 355 kts 30°
2026-04-15 08:41 37.08846 -4.34753 18414 ft 359 kts 30°
2026-04-15 08:41 37.10966 -4.33068 18999 ft 363 kts 30°
2026-04-15 08:41 37.13104 -4.31359 19577 ft 366 kts 30°
2026-04-15 08:42 37.15259 -4.29637 20160 ft 369 kts 30°
2026-04-15 08:42 37.17430 -4.27906 20731 ft 372 kts 30°
2026-04-15 08:42 37.19619 -4.26161 21274 ft 374 kts 30°
2026-04-15 08:42 37.21827 -4.24400 21807 ft 377 kts 30°
2026-04-15 08:43 37.24047 -4.22625 22323 ft 380 kts 29°
2026-04-15 08:43 37.26282 -4.20838 22813 ft 382 kts 29°
2026-04-15 08:43 37.28536 -4.19036 23285 ft 385 kts 29°
2026-04-15 08:43 37.30800 -4.17229 23760 ft 388 kts 29°
2026-04-15 08:44 37.33085 -4.15402 24231 ft 390 kts 29°
2026-04-15 08:44 37.35379 -4.13560 24689 ft 392 kts 29°
2026-04-15 08:44 37.37687 -4.11701 25113 ft 395 kts 29°
2026-04-15 08:44 37.40006 -4.09831 25530 ft 398 kts 29°
2026-04-15 08:45 37.42345 -4.07946 25931 ft 401 kts 29°
2026-04-15 08:45 37.44700 -4.06051 26316 ft 403 kts 28°
2026-04-15 08:45 37.47073 -4.04145 26689 ft 406 kts 28°
2026-04-15 08:45 37.49464 -4.02223 27065 ft 409 kts 28°
2026-04-15 08:46 37.51866 -4.00289 27425 ft 411 kts 28°
2026-04-15 08:46 37.54283 -3.98338 27801 ft 414 kts 28°
2026-04-15 08:46 37.56713 -3.96377 28193 ft 415 kts 28°
2026-04-15 08:46 37.59147 -3.94407 28541 ft 417 kts 28°
2026-04-15 08:47 37.61598 -3.92422 28868 ft 420 kts 28°
2026-04-15 08:47 37.64066 -3.90426 29196 ft 422 kts 28°
2026-04-15 08:47 37.66549 -3.88418 29504 ft 425 kts 28°
2026-04-15 08:47 37.69044 -3.86394 29798 ft 428 kts 28°
2026-04-15 08:48 37.71555 -3.84356 30099 ft 430 kts 28°
2026-04-15 08:48 37.74079 -3.82309 30403 ft 432 kts 28°
2026-04-15 08:48 37.76615 -3.80252 30690 ft 434 kts 28°
2026-04-15 08:48 37.79164 -3.78178 30968 ft 437 kts 28°
2026-04-15 08:49 37.81728 -3.76102 31239 ft 437 kts 26°
2026-04-15 08:49 37.84427 -3.74369 31485 ft 434 kts 18°
2026-04-15 08:49 37.87283 -3.73157 31743 ft 433 kts 12°
2026-04-15 08:49 37.90167 -3.72070 32122 ft 432 kts 13°
2026-04-15 08:50 37.93042 -3.70977 32487 ft 431 kts 12°
2026-04-15 08:50 37.95906 -3.69883 32850 ft 430 kts 13°
2026-04-15 08:50 37.98766 -3.68788 33211 ft 429 kts 13°
2026-04-15 08:50 38.01619 -3.67695 33571 ft 428 kts 13°
2026-04-15 08:51 38.04465 -3.66606 33901 ft 427 kts 13°
2026-04-15 08:51 38.07309 -3.65519 34223 ft 427 kts 12°
2026-04-15 08:51 38.10152 -3.64432 34560 ft 426 kts 12°
2026-04-15 08:51 38.12987 -3.63346 34891 ft 425 kts 12°
2026-04-15 08:52 38.15814 -3.62248 35200 ft 425 kts 13°
2026-04-15 08:52 38.18611 -3.61054 35507 ft 425 kts 15°
2026-04-15 08:52 38.21391 -3.59761 35804 ft 425 kts 16°
2026-04-15 08:52 38.24148 -3.58418 36078 ft 424 kts 17°
2026-04-15 08:53 38.26898 -3.57058 36233 ft 424 kts 17°
2026-04-15 08:53 38.32320 -3.54410 36266 ft 417 kts 16°
2026-04-15 08:54 38.37748 -3.51839 36265 ft 416 kts 15°
2026-04-15 08:54 38.43178 -3.49292 36266 ft 415 kts 15°
2026-04-15 08:55 38.48598 -3.46731 36265 ft 415 kts 16°
2026-04-15 08:55 38.54013 -3.44158 36266 ft 415 kts 16°
2026-04-15 08:56 38.59425 -3.41587 36265 ft 415 kts 16°
2026-04-15 08:56 38.64836 -3.39006 36266 ft 415 kts 16°
2026-04-15 08:57 38.70246 -3.36419 36267 ft 415 kts 16°
2026-04-15 08:57 38.75653 -3.33832 36268 ft 415 kts 16°
2026-04-15 08:58 38.81062 -3.31242 36271 ft 415 kts 16°
2026-04-15 08:58 38.89162 -3.27348 36274 ft 414 kts 16°
2026-04-15 08:59 38.94563 -3.24757 36274 ft 414 kts 16°
2026-04-15 08:59 38.99958 -3.22161 36274 ft 414 kts 16°
2026-04-15 09:00 39.05351 -3.19567 36270 ft 414 kts 16°
2026-04-15 09:00 39.10746 -3.16961 36274 ft 414 kts 16°
2026-04-15 09:01 39.16134 -3.14339 36275 ft 414 kts 16°
2026-04-15 09:01 39.21523 -3.11719 36273 ft 414 kts 16°
2026-04-15 09:02 39.26915 -3.09105 36274 ft 414 kts 16°
2026-04-15 09:02 39.32274 -3.06509 36259 ft 415 kts 16°
2026-04-15 09:03 39.37692 -3.03873 36246 ft 417 kts 16°
2026-04-15 09:03 39.43132 -3.01217 36251 ft 419 kts 16°
2026-04-15 09:04 39.48579 -2.98527 36252 ft 420 kts 16°
2026-04-15 09:04 39.54041 -2.95829 36257 ft 420 kts 16°
2026-04-15 09:05 39.59510 -2.93135 36261 ft 421 kts 16°
2026-04-15 09:05 39.64066 -2.90901 36266 ft 421 kts 16°
2026-04-15 09:06 39.69547 -2.88197 36274 ft 421 kts 16°
2026-04-15 09:06 39.75024 -2.85490 36278 ft 421 kts 16°
2026-04-15 09:07 39.80495 -2.82780 36278 ft 420 kts 16°
2026-04-15 09:07 39.85958 -2.80074 36279 ft 420 kts 16°
2026-04-15 09:08 39.91421 -2.77369 36280 ft 420 kts 16°
2026-04-15 09:08 39.96880 -2.74656 36281 ft 420 kts 16°
2026-04-15 09:09 40.02330 -2.71934 36278 ft 419 kts 16°
2026-04-15 09:09 40.07774 -2.69216 36265 ft 419 kts 16°
2026-04-15 09:10 40.13229 -2.66489 36261 ft 420 kts 16°
2026-04-15 09:10 40.18692 -2.63755 36262 ft 420 kts 16°
2026-04-15 09:11 40.24157 -2.61018 36265 ft 420 kts 16°
2026-04-15 09:11 40.29623 -2.58277 36270 ft 421 kts 16°
2026-04-15 09:12 40.35085 -2.55523 36271 ft 421 kts 16°
2026-04-15 09:12 40.40437 -2.52360 36271 ft 424 kts 21°
2026-04-15 09:13 40.45680 -2.48928 36270 ft 424 kts 21°
2026-04-15 09:13 40.50963 -2.45470 36268 ft 424 kts 21°
2026-04-15 09:14 40.56247 -2.42007 36266 ft 425 kts 21°
2026-04-15 09:14 40.61534 -2.38532 36265 ft 425 kts 22°
2026-04-15 09:15 40.66857 -2.35030 36257 ft 433 kts 22°
2026-04-15 09:15 40.72324 -2.31436 36258 ft 445 kts 22°
2026-04-15 09:16 40.77937 -2.27733 36248 ft 457 kts 22°
2026-04-15 09:16 40.83667 -2.23943 36247 ft 463 kts 22°
2026-04-15 09:17 40.89427 -2.20114 36244 ft 464 kts 22°
2026-04-15 09:17 40.95193 -2.16273 36235 ft 465 kts 22°
2026-04-15 09:18 41.00970 -2.12426 36229 ft 465 kts 22°
2026-04-15 09:18 41.06754 -2.08572 36229 ft 466 kts 22°
2026-04-15 09:19 41.12337 -2.04121 36228 ft 469 kts 27°
2026-04-15 09:19 41.17864 -1.99502 36229 ft 470 kts 27°
2026-04-15 09:20 41.23355 -1.94910 36228 ft 469 kts 28°
2026-04-15 09:20 41.28867 -1.90284 36230 ft 469 kts 28°
2026-04-15 09:21 41.34383 -1.85657 36229 ft 469 kts 28°
2026-04-15 09:21 41.39903 -1.81012 36229 ft 470 kts 28°
2026-04-15 09:22 41.45423 -1.76343 36231 ft 470 kts 28°
2026-04-15 09:22 41.50950 -1.71669 36231 ft 471 kts 28°
2026-04-15 09:23 41.56484 -1.66990 36235 ft 471 kts 28°
2026-04-15 09:23 41.62016 -1.62304 36238 ft 471 kts 28°
2026-04-15 09:24 41.67550 -1.57597 36241 ft 472 kts 28°
2026-04-15 09:24 41.73086 -1.52868 36240 ft 472 kts 28°
2026-04-15 09:25 41.78622 -1.48135 36220 ft 471 kts 28°
2026-04-15 09:25 41.84149 -1.43409 36220 ft 471 kts 28°
2026-04-15 09:26 41.89673 -1.38680 36218 ft 471 kts 28°
2026-04-15 09:26 41.95194 -1.33941 36222 ft 471 kts 28°
2026-04-15 09:27 42.00715 -1.29190 36222 ft 471 kts 28°
2026-04-15 09:27 42.06239 -1.24429 36209 ft 472 kts 28°
2026-04-15 09:28 42.11605 -1.19382 36208 ft 477 kts 35°
2026-04-15 09:28 42.16737 -1.13694 36208 ft 478 kts 35°
2026-04-15 09:29 42.21874 -1.07984 36211 ft 479 kts 35°
2026-04-15 09:29 42.27013 -1.02255 36220 ft 480 kts 35°
2026-04-15 09:30 42.32165 -0.96516 36221 ft 480 kts 35°
2026-04-15 09:30 42.37318 -0.90756 36220 ft 481 kts 35°
2026-04-15 09:31 42.42428 -0.84912 36218 ft 484 kts 40°
2026-04-15 09:31 42.46722 -0.77815 36221 ft 489 kts 49°
2026-04-15 09:32 42.50870 -0.70501 36220 ft 490 kts 49°
2026-04-15 09:32 42.55025 -0.63177 36222 ft 491 kts 49°
2026-04-15 09:33 42.59182 -0.55836 36226 ft 491 kts 49°
2026-04-15 09:33 42.63334 -0.48478 36230 ft 491 kts 49°
2026-04-15 09:34 42.67487 -0.41104 36231 ft 491 kts 49°
2026-04-15 09:34 42.71636 -0.33719 36233 ft 492 kts 49°
2026-04-15 09:35 42.75786 -0.26308 36242 ft 492 kts 49°
2026-04-15 09:35 42.79929 -0.18892 36242 ft 492 kts 49°
2026-04-15 09:36 42.84192 -0.11615 36251 ft 491 kts 47°
2026-04-15 09:36 42.88542 -0.04522 36251 ft 491 kts 46°
2026-04-15 09:37 42.92916 0.02632 36257 ft 491 kts 46°
2026-04-15 09:37 42.95085 0.06240 36516 ft 490 kts 46°
2026-04-15 09:37 42.97202 0.09798 37328 ft 472 kts 46°
2026-04-15 09:38 42.99202 0.13192 38178 ft 451 kts 46°
2026-04-15 09:38 43.01154 0.16507 38253 ft 447 kts 46°
2026-04-15 09:38 43.05119 0.23160 38247 ft 454 kts 46°
2026-04-15 09:39 43.09124 0.29865 38247 ft 456 kts 46°
2026-04-15 09:39 43.13123 0.36607 38249 ft 456 kts 46°
2026-04-15 09:40 43.17115 0.43360 38248 ft 456 kts 46°
2026-04-15 09:40 43.21104 0.50123 38250 ft 456 kts 46°
2026-04-15 09:41 43.25090 0.56897 38252 ft 457 kts 46°
2026-04-15 09:41 43.29076 0.63685 38256 ft 457 kts 46°
2026-04-15 09:42 43.33054 0.70485 38259 ft 456 kts 46°
2026-04-15 09:42 43.37028 0.77282 38260 ft 456 kts 46°
2026-04-15 09:43 43.40998 0.84081 38262 ft 456 kts 46°
2026-04-15 09:43 43.44963 0.90899 38265 ft 455 kts 46°
2026-04-15 09:44 43.48910 0.97704 38264 ft 455 kts 46°
2026-04-15 09:44 43.52850 1.04514 38266 ft 454 kts 46°
2026-04-15 09:45 43.56789 1.11320 38271 ft 454 kts 46°
2026-04-15 09:45 43.60718 1.18125 38279 ft 454 kts 46°
2026-04-15 09:46 43.64637 1.24949 38287 ft 453 kts 46°
2026-04-15 09:46 43.68513 1.31726 38297 ft 453 kts 47°
2026-04-15 09:47 43.72298 1.38666 38272 ft 451 kts 49°
2026-04-15 09:47 43.75977 1.45681 38275 ft 450 kts 49°
2026-04-15 09:48 43.79652 1.52673 38274 ft 449 kts 49°
2026-04-15 09:48 43.83352 1.59636 38272 ft 449 kts 48°
2026-04-15 09:49 43.87054 1.66598 38260 ft 448 kts 48°
2026-04-15 09:49 43.90751 1.73567 38263 ft 448 kts 49°
2026-04-15 09:50 43.94434 1.80545 38262 ft 448 kts 49°
2026-04-15 09:50 43.98077 1.87591 38266 ft 450 kts 50°
2026-04-15 09:51 44.01620 1.94760 38266 ft 450 kts 50°
2026-04-15 09:51 44.05143 2.01945 38266 ft 450 kts 50°
2026-04-15 09:52 44.08693 2.09112 38269 ft 450 kts 50°
2026-04-15 09:52 44.12251 2.16261 38255 ft 449 kts 50°
2026-04-15 09:53 44.15793 2.23423 38256 ft 449 kts 50°
2026-04-15 09:53 44.19325 2.30603 38247 ft 449 kts 50°
2026-04-15 09:54 44.22844 2.37781 38246 ft 449 kts 50°
2026-04-15 09:54 44.26345 2.44916 38250 ft 449 kts 50°
2026-04-15 09:55 44.29863 2.52113 38258 ft 449 kts 51°
2026-04-15 09:55 44.33372 2.59307 38246 ft 447 kts 50°
2026-04-15 09:56 44.36304 2.65324 38249 ft 447 kts 51°
2026-04-15 09:57 44.41537 2.76107 38247 ft 446 kts 51°
2026-04-15 09:57 44.45010 2.83298 38247 ft 445 kts 51°
2026-04-15 09:58 44.48472 2.90470 38249 ft 445 kts 51°
2026-04-15 09:58 44.51931 2.97640 38250 ft 444 kts 51°
2026-04-15 09:59 44.55381 3.04810 38258 ft 444 kts 51°
2026-04-15 09:59 44.58794 3.11948 38264 ft 444 kts 51°
2026-04-15 10:00 44.62160 3.19209 38265 ft 444 kts 54°
2026-04-15 10:00 44.65218 3.26763 38267 ft 445 kts 56°
2026-04-15 10:01 44.68164 3.34416 38271 ft 444 kts 56°
2026-04-15 10:01 44.71141 3.42008 38272 ft 443 kts 55°
2026-04-15 10:02 44.74160 3.49552 38275 ft 442 kts 55°
2026-04-15 10:02 44.77170 3.57093 38267 ft 442 kts 55°
2026-04-15 10:03 44.80169 3.64635 38268 ft 441 kts 55°
2026-04-15 10:03 44.83150 3.72161 38269 ft 441 kts 56°
2026-04-15 10:04 44.86131 3.79718 38266 ft 440 kts 56°
2026-04-15 10:04 44.89097 3.87269 38265 ft 440 kts 56°
2026-04-15 10:05 44.92062 3.94824 38261 ft 440 kts 56°
2026-04-15 10:05 44.95022 4.02379 38229 ft 439 kts 56°
2026-04-15 10:06 44.97931 4.09851 38227 ft 435 kts 56°
2026-04-15 10:06 45.00838 4.17330 38242 ft 434 kts 56°
2026-04-15 10:07 45.03746 4.24816 38243 ft 435 kts 56°
2026-04-15 10:07 45.06649 4.32323 38226 ft 435 kts 56°
2026-04-15 10:08 45.09550 4.39835 38233 ft 435 kts 56°
2026-04-15 10:08 45.12444 4.47358 38223 ft 435 kts 56°
2026-04-15 10:09 45.15329 4.54885 38229 ft 435 kts 56°
2026-04-15 10:09 45.18218 4.62418 38234 ft 435 kts 56°
2026-04-15 10:10 45.21100 4.69968 38245 ft 435 kts 56°
2026-04-15 10:10 45.23979 4.77527 38242 ft 435 kts 56°
2026-04-15 10:11 45.26855 4.85091 38229 ft 435 kts 56°
2026-04-15 10:11 45.29716 4.92662 38230 ft 435 kts 56°
2026-04-15 10:12 45.32570 5.00244 38237 ft 435 kts 56°
2026-04-15 10:12 45.35424 5.07822 38243 ft 435 kts 56°
2026-04-15 10:13 45.38275 5.15392 38227 ft 434 kts 56°
2026-04-15 10:13 45.41119 5.22972 38243 ft 434 kts 56°
2026-04-15 10:14 45.43950 5.30559 38241 ft 434 kts 56°
2026-04-15 10:14 45.46750 5.38106 38243 ft 433 kts 56°
2026-04-15 10:15 45.50010 5.45187 38242 ft 422 kts 42°
2026-04-15 10:15 45.54341 5.50831 38242 ft 418 kts 37°
2026-04-15 10:16 45.58652 5.56327 38245 ft 418 kts 38°
2026-04-15 10:16 45.63008 5.61906 38221 ft 417 kts 38°
2026-04-15 10:17 45.67293 5.67399 38225 ft 416 kts 38°
2026-04-15 10:17 45.71600 5.72930 38215 ft 416 kts 38°
2026-04-15 10:18 45.75903 5.78454 38219 ft 415 kts 38°
2026-04-15 10:18 45.80202 5.83982 38224 ft 415 kts 38°
2026-04-15 10:19 45.84499 5.89519 38219 ft 415 kts 38°
2026-04-15 10:19 45.88798 5.95063 38227 ft 416 kts 38°
2026-04-15 10:20 45.93091 6.00618 38233 ft 416 kts 38°
2026-04-15 10:20 45.97390 6.06188 38236 ft 416 kts 38°
2026-04-15 10:21 46.01680 6.11764 38232 ft 415 kts 38°
2026-04-15 10:21 46.05960 6.17344 38230 ft 415 kts 38°
2026-04-15 10:22 46.10228 6.22961 38218 ft 416 kts 39°
2026-04-15 10:22 46.14374 6.28790 38218 ft 417 kts 40°
2026-04-15 10:23 46.18475 6.34718 38218 ft 417 kts 40°
2026-04-15 10:23 46.22590 6.40638 38216 ft 418 kts 40°
2026-04-15 10:24 46.26720 6.46540 38221 ft 418 kts 40°
2026-04-15 10:24 46.30860 6.52448 38220 ft 419 kts 40°
2026-04-15 10:25 46.35004 6.58374 38220 ft 419 kts 40°
2026-04-15 10:25 46.39143 6.64336 38217 ft 420 kts 40°
2026-04-15 10:26 46.43284 6.70305 38215 ft 420 kts 40°
2026-04-15 10:26 46.47429 6.76281 38217 ft 420 kts 40°
2026-04-15 10:27 46.51538 6.82239 38217 ft 421 kts 41°
2026-04-15 10:27 46.55669 6.88276 38214 ft 422 kts 43°
2026-04-15 10:28 46.59403 6.94915 38219 ft 425 kts 46°
2026-04-15 10:28 46.63125 7.01604 38223 ft 425 kts 46°
2026-04-15 10:29 46.66848 7.08298 38220 ft 425 kts 46°
2026-04-15 10:29 46.70557 7.15007 38224 ft 426 kts 46°
2026-04-15 10:30 46.74269 7.21748 38220 ft 426 kts 46°
2026-04-15 10:30 46.77985 7.28494 38223 ft 426 kts 46°
2026-04-15 10:31 46.81699 7.35253 38230 ft 427 kts 47°
2026-04-15 10:31 46.85408 7.42042 38221 ft 428 kts 47°
2026-04-15 10:32 46.89113 7.48845 38227 ft 428 kts 47°
2026-04-15 10:32 46.92820 7.55665 38232 ft 428 kts 47°
2026-04-15 10:33 46.96523 7.62499 38231 ft 428 kts 47°
2026-04-15 10:33 47.00225 7.69335 38239 ft 428 kts 47°
2026-04-15 10:34 47.03924 7.76172 38232 ft 428 kts 47°
2026-04-15 10:34 47.07619 7.83028 38233 ft 428 kts 47°
2026-04-15 10:35 47.11305 7.89898 38244 ft 429 kts 47°
2026-04-15 10:35 47.14801 7.97008 38244 ft 432 kts 53°
2026-04-15 10:36 47.17994 8.04493 38229 ft 432 kts 53°
2026-04-15 10:36 47.21190 8.11994 38243 ft 432 kts 53°
2026-04-15 10:37 47.24381 8.19505 38242 ft 433 kts 53°
2026-04-15 10:37 47.27573 8.27041 38242 ft 434 kts 53°
2026-04-15 10:38 47.31475 8.33612 38242 ft 422 kts 34°
2026-04-15 10:38 47.36548 8.37788 38241 ft 417 kts 23°
2026-04-15 10:39 47.41794 8.41481 38243 ft 418 kts 23°
2026-04-15 10:39 47.47045 8.45199 38245 ft 419 kts 23°
2026-04-15 10:40 47.52297 8.48934 38247 ft 419 kts 23°
2026-04-15 10:40 47.57549 8.52675 38251 ft 419 kts 23°
2026-04-15 10:41 47.62790 8.56429 38251 ft 418 kts 23°
2026-04-15 10:41 47.68029 8.60181 38247 ft 418 kts 23°
2026-04-15 10:42 47.72389 8.63298 38246 ft 418 kts 23°
2026-04-15 10:42 47.78483 8.67659 38247 ft 419 kts 23°
2026-04-15 10:43 47.83732 8.71441 38248 ft 419 kts 23°
2026-04-15 10:43 47.88983 8.75231 38247 ft 420 kts 23°
2026-04-15 10:44 47.93394 8.78406 38250 ft 420 kts 23°
2026-04-15 10:44 47.98618 8.82191 38255 ft 421 kts 23°
2026-04-15 10:45 48.03884 8.86021 38247 ft 420 kts 23°
2026-04-15 10:45 48.06493 8.87926 38046 ft 413 kts 23°
2026-04-15 10:45 48.09036 8.89786 37795 ft 405 kts 23°
2026-04-15 10:45 48.11551 8.91622 37543 ft 399 kts 23°
2026-04-15 10:46 48.14029 8.93426 37272 ft 392 kts 22°
2026-04-15 10:46 48.16542 8.94910 36801 ft 385 kts 14°
2026-04-15 10:46 48.19138 8.95718 36323 ft 379 kts
2026-04-15 10:46 48.21747 8.96099 35822 ft 375 kts
2026-04-15 10:47 48.24332 8.96478 35332 ft 372 kts
2026-04-15 10:47 48.26896 8.96865 34843 ft 368 kts
2026-04-15 10:47 48.29432 8.97254 34352 ft 365 kts
2026-04-15 10:47 48.31944 8.97638 33878 ft 362 kts
2026-04-15 10:48 48.34441 8.98023 33399 ft 358 kts
2026-04-15 10:48 48.36908 8.98405 32943 ft 355 kts
2026-04-15 10:48 48.39352 8.98776 32484 ft 351 kts
2026-04-15 10:48 48.41774 8.99140 32031 ft 348 kts
2026-04-15 10:49 48.44169 8.99504 31597 ft 344 kts
2026-04-15 10:49 48.46539 8.99866 31172 ft 341 kts
2026-04-15 10:49 48.48888 9.00224 30741 ft 337 kts
2026-04-15 10:49 48.51207 9.00582 30321 ft 333 kts
2026-04-15 10:50 48.53501 9.00937 29913 ft 330 kts
2026-04-15 10:50 48.55773 9.01287 29521 ft 326 kts
2026-04-15 10:50 48.58021 9.01629 29132 ft 322 kts
2026-04-15 10:50 48.60239 9.01965 28759 ft 319 kts
2026-04-15 10:51 48.62441 9.02298 28390 ft 317 kts
2026-04-15 10:51 48.64629 9.02700 28023 ft 317 kts
2026-04-15 10:51 48.66806 9.03201 27635 ft 316 kts
2026-04-15 10:51 48.68972 9.03745 27261 ft 315 kts
2026-04-15 10:52 48.71135 9.04296 26870 ft 315 kts
2026-04-15 10:52 48.73294 9.04835 26479 ft 315 kts
2026-04-15 10:52 48.75457 9.05364 26083 ft 315 kts
2026-04-15 10:52 48.77617 9.05889 25670 ft 314 kts
2026-04-15 10:53 48.79776 9.06414 25262 ft 315 kts
2026-04-15 10:53 48.81932 9.06936 24840 ft 314 kts
2026-04-15 10:53 48.84091 9.07455 24419 ft 313 kts
2026-04-15 10:53 48.86247 9.07972 23999 ft 313 kts
2026-04-15 10:54 48.88399 9.08481 23579 ft 313 kts
2026-04-15 10:54 48.90560 9.08885 23153 ft 313 kts
2026-04-15 10:54 48.92725 9.09195 22746 ft 312 kts
2026-04-15 10:54 48.94882 9.09468 22347 ft 311 kts
2026-04-15 10:55 48.97038 9.09741 21943 ft 311 kts
2026-04-15 10:55 48.99189 9.10023 21546 ft 310 kts
2026-04-15 10:55 49.01339 9.10313 21148 ft 311 kts
2026-04-15 10:55 49.03545 9.10616 20750 ft 324 kts
2026-04-15 10:56 49.05806 9.10933 20337 ft 327 kts
2026-04-15 10:56 49.08074 9.11255 19926 ft 327 kts
2026-04-15 10:56 49.10339 9.11580 19514 ft 326 kts
2026-04-15 10:56 49.12602 9.11899 19008 ft 328 kts
2026-04-15 10:57 49.14870 9.12222 18673 ft 326 kts
2026-04-15 10:57 49.19364 9.12869 17876 ft 323 kts
2026-04-15 10:57 49.21602 9.13191 17469 ft 323 kts
2026-04-15 10:58 49.23838 9.13513 17062 ft 322 kts
2026-04-15 10:58 49.26068 9.13835 16657 ft 322 kts
2026-04-15 10:58 49.28293 9.14182 16252 ft 322 kts
2026-04-15 10:58 49.30454 9.14887 15811 ft 322 kts 12°
2026-04-15 10:59 49.32645 9.15660 15366 ft 323 kts 13°
2026-04-15 10:59 49.34838 9.16443 14917 ft 324 kts 13°
2026-04-15 10:59 49.37037 9.17230 14465 ft 325 kts 13°
2026-04-15 10:59 49.39238 9.18014 14020 ft 325 kts 13°
2026-04-15 11:00 49.41445 9.18798 13560 ft 326 kts 13°
2026-04-15 11:00 49.43653 9.19581 13112 ft 325 kts 13°
2026-04-15 11:00 49.45852 9.20363 12671 ft 324 kts 13°
2026-04-15 11:00 49.48039 9.21143 12270 ft 322 kts 13°
2026-04-15 11:01 49.50217 9.21918 11848 ft 320 kts 13°
2026-04-15 11:01 49.52383 9.22689 11445 ft 318 kts 13°
2026-04-15 11:01 49.54532 9.23458 11114 ft 313 kts 13°
2026-04-15 11:01 49.56610 9.24201 11026 ft 301 kts 13°
2026-04-15 11:02 49.58631 9.24924 10916 ft 297 kts 13°
2026-04-15 11:02 49.60637 9.25638 10799 ft 295 kts 13°
2026-04-15 11:02 49.62633 9.26348 10668 ft 294 kts 13°
2026-04-15 11:02 49.64628 9.27063 10567 ft 295 kts 13°
2026-04-15 11:03 49.66624 9.27780 10451 ft 294 kts 13°
2026-04-15 11:03 49.68610 9.28491 10335 ft 293 kts 13°
2026-04-15 11:03 49.70599 9.29201 10225 ft 293 kts 13°
2026-04-15 11:03 49.72584 9.29911 10163 ft 293 kts 13°
2026-04-15 11:04 49.74568 9.30623 10091 ft 293 kts 13°
2026-04-15 11:04 49.76548 9.31335 10012 ft 292 kts 13°
2026-04-15 11:04 49.78528 9.32049 9936 ft 292 kts 13°
2026-04-15 11:04 49.80504 9.32763 9867 ft 291 kts 13°
2026-04-15 11:05 49.82487 9.33427 9796 ft 292 kts
2026-04-15 11:05 49.84491 9.33145 9717 ft 292 kts 341°
2026-04-15 11:05 49.86217 9.31552 9642 ft 291 kts 315°
2026-04-15 11:05 49.87335 9.28973 9580 ft 290 kts 290°
2026-04-15 11:06 49.87933 9.25991 9510 ft 290 kts 285°
2026-04-15 11:06 49.88409 9.23483 9447 ft 290 kts 285°
2026-04-15 11:06 49.88976 9.20491 9376 ft 289 kts 285°
2026-04-15 11:06 49.89543 9.17500 9310 ft 289 kts 285°
2026-04-15 11:07 49.90110 9.14506 9240 ft 289 kts 285°
2026-04-15 11:07 49.90678 9.11510 9162 ft 290 kts 285°
2026-04-15 11:07 49.91246 9.08512 9085 ft 290 kts 285°
2026-04-15 11:07 49.91816 9.05509 9025 ft 290 kts 285°
2026-04-15 11:08 49.92384 9.02509 8940 ft 290 kts 285°
2026-04-15 11:08 49.92956 8.99514 8867 ft 289 kts 285°
2026-04-15 11:08 49.93528 8.96525 8806 ft 289 kts 285°
2026-04-15 11:08 49.94102 8.93538 8735 ft 289 kts 286°
2026-04-15 11:09 49.94668 8.90593 8664 ft 288 kts 285°
2026-04-15 11:09 49.95238 8.87612 8596 ft 288 kts 285°
2026-04-15 11:09 49.95801 8.84633 8506 ft 288 kts 285°
2026-04-15 11:09 49.96364 8.81651 8366 ft 287 kts 285°
2026-04-15 11:10 49.96926 8.78680 8229 ft 286 kts 285°
2026-04-15 11:10 49.97489 8.75711 8080 ft 286 kts 285°
2026-04-15 11:10 49.97841 8.72690 7932 ft 284 kts 271°
2026-04-15 11:10 49.97678 8.69658 7769 ft 281 kts 256°
2026-04-15 11:11 49.97071 8.66782 7630 ft 280 kts 248°
2026-04-15 11:11 49.96386 8.63954 7478 ft 280 kts 248°
2026-04-15 11:11 49.95705 8.61131 7330 ft 279 kts 249°
2026-04-15 11:11 49.95028 8.58319 7186 ft 278 kts 248°
2026-04-15 11:12 49.94349 8.55511 7052 ft 278 kts 248°
2026-04-15 11:12 49.93672 8.52707 6903 ft 277 kts 248°
2026-04-15 11:12 49.92996 8.49905 6753 ft 277 kts 249°
2026-04-15 11:12 49.92321 8.47117 6602 ft 276 kts 249°
2026-04-15 11:13 49.91649 8.44329 6450 ft 275 kts 249°
2026-04-15 11:13 49.90981 8.41554 6305 ft 275 kts 249°
2026-04-15 11:13 49.90311 8.38788 6154 ft 274 kts 249°
2026-04-15 11:13 49.89650 8.36058 6006 ft 274 kts 249°
2026-04-15 11:14 49.88982 8.33297 5872 ft 273 kts 249°
2026-04-15 11:14 49.88315 8.30543 5718 ft 272 kts 249°
2026-04-15 11:14 49.87648 8.27800 5567 ft 271 kts 249°
2026-04-15 11:14 49.86983 8.25066 5418 ft 270 kts 249°
2026-04-15 11:15 49.86319 8.22341 5267 ft 270 kts 249°
2026-04-15 11:15 49.85770 8.19600 5119 ft 261 kts 262°
2026-04-15 11:15 49.85862 8.16873 5006 ft 248 kts 285°
2026-04-15 11:15 49.86569 8.14553 4999 ft 231 kts 307°
2026-04-15 11:16 49.87697 8.12890 5005 ft 222 kts 328°
2026-04-15 11:16 49.89098 8.11965 5004 ft 219 kts 349°
2026-04-15 11:16 49.90608 8.11834 5003 ft 218 kts
2026-04-15 11:16 49.92047 8.12505 5009 ft 216 kts 29°
2026-04-15 11:17 49.93283 8.13817 5009 ft 216 kts 38°
2026-04-15 11:17 49.94475 8.15210 5004 ft 210 kts 38°
2026-04-15 11:17 49.95532 8.16666 4989 ft 198 kts 53°
2026-04-15 11:17 49.96178 8.18511 4786 ft 193 kts 70°
2026-04-15 11:18 49.96642 8.20435 4492 ft 187 kts 70°
2026-04-15 11:18 49.97080 8.22255 4230 ft 172 kts 70°
2026-04-15 11:18 49.97481 8.23910 3973 ft 155 kts 70°
2026-04-15 11:18 49.97844 8.25406 3764 ft 142 kts 70°
2026-04-15 11:19 49.98183 8.26808 3565 ft 137 kts 70°
2026-04-15 11:19 49.98518 8.28187 3381 ft 136 kts 71°
2026-04-15 11:19 49.98849 8.29559 3193 ft 135 kts 70°
2026-04-15 11:19 49.99179 8.30920 3013 ft 134 kts 70°
2026-04-15 11:20 49.99508 8.32280 2828 ft 134 kts 71°
2026-04-15 11:20 49.99835 8.33635 2636 ft 134 kts 71°
2026-04-15 11:20 50.00162 8.34988 2452 ft 134 kts 71°
2026-04-15 11:20 50.00488 8.36339 2253 ft 133 kts 71°
2026-04-15 11:21 50.00813 8.37684 2055 ft 133 kts 71°
2026-04-15 11:21 50.01137 8.39028 1867 ft 133 kts 71°
2026-04-15 11:21 50.01460 8.40367 1677 ft 132 kts 71°
2026-04-15 11:21 50.01783 8.41706 1482 ft 132 kts 71°
2026-04-15 11:22 50.02104 8.43040 1301 ft 131 kts 71°
2026-04-15 11:22 50.02424 8.44373 1114 ft 132 kts 71°
2026-04-15 11:22 50.02741 8.45688 935 ft 131 kts 71°
2026-04-15 11:22 50.03062 8.47029 743 ft 133 kts 71°
2026-04-15 11:23 50.03385 8.48376 574 ft 133 kts 71°
2026-04-15 11:23 50.03709 8.49725 364 ft 132 kts 71°
2026-04-15 11:23 50.04006 8.50990 325 ft 111 kts 68°
2026-04-15 11:23 50.04222 8.51873 336 ft 63 kts 70°
2026-04-15 11:24 50.04322 8.52292 345 ft 31 kts 70°
2026-04-15 11:24 50.04385 8.52566 354 ft 26 kts 74°
2026-04-15 11:24 50.04389 8.52841 350 ft 22 kts 96°
2026-04-15 11:24 50.04368 8.53036 360 ft 13 kts 99°
2026-04-15 11:25 50.04354 8.53169 362 ft 11 kts 99°
2026-04-15 11:25 50.04348 8.53277 364 ft 10 kts 85°
2026-04-15 11:25 50.04370 8.53383 372 ft 11 kts 69°
2026-04-15 11:25 50.04395 8.53515 375 ft 17 kts 85°
2026-04-15 11:26 50.04411 8.53754 375 ft 27 kts 84°
2026-04-15 11:26 50.04430 8.54048 375 ft 28 kts 84°
2026-04-15 11:26 50.04449 8.54328 374 ft 21 kts 84°
2026-04-15 11:26 50.04431 8.54585 365 ft 27 kts 114°
2026-04-15 11:27 50.04305 8.54777 356 ft 21 kts 159°
2026-04-15 11:27 50.04149 8.54864 351 ft 26 kts 160°
2026-04-15 11:27 50.04024 8.54945 352 ft 16 kts 139°
2026-04-15 11:27 50.04040 8.55109 353 ft 17 kts 69°
2026-04-15 11:28 50.04085 8.55295 361 ft 20 kts 70°
2026-04-15 11:28 50.04138 8.55516 353 ft 23 kts 69°
2026-04-15 11:28 50.04192 8.55743 355 ft 14 kts 69°
2026-04-15 11:28 50.04203 8.55789 353 ft 0 kts 69°
2026-04-15 11:30 50.04203 8.55790 353 ft 0 kts 69°
2026-04-15 11:30 50.04205 8.55795 357 ft 3 kts 69°
2026-04-15 11:30 50.04222 8.55866 356 ft 11 kts 70°
2026-04-15 11:30 50.04281 8.55963 356 ft 16 kts 352°
2026-04-15 11:31 50.04402 8.55905 365 ft 19 kts 356°
2026-04-15 11:31 50.04516 8.55952 362 ft 15 kts 17°
2026-04-15 11:31 50.04580 8.56074 362 ft 16 kts 70°
2026-04-15 11:31 50.04614 8.56215 361 ft 10 kts 69°
2026-04-15 11:32 50.04622 8.56260 362 ft 2 kts 85°
2026-04-15 11:32 50.04623 8.56283 360 ft 2 kts 86°
2026-04-15 11:32 50.04623 8.56305 363 ft 4 kts 92°
2026-04-15 11:32 50.04626 8.56343 360 ft 3 kts 70°
2026-04-15 11:33 50.04633 8.56371 356 ft 3 kts 70°
2026-04-15 11:33 50.04636 8.56385 359 ft 0 kts 70°
2026-04-15 11:35 50.04636 8.56386 356 ft 1 kts 70°
2026-04-15 11:36 50.04650 8.56446 356 ft 8 kts 70°
2026-04-15 11:36 50.04670 8.56519 358 ft 7 kts 57°
2026-04-15 11:36 50.04706 8.56554 356 ft 6 kts 36°
2026-04-15 11:36 50.04728 8.56599 356 ft 5 kts 54°
2026-04-15 11:37 50.04746 8.56639 364 ft 4 kts 54°
2026-04-15 11:37 50.04753 8.56677 356 ft 3 kts 98°
2026-04-15 11:37 50.04746 8.56704 356 ft 2 kts 114°
2026-04-15 11:37 50.04740 8.56725 360 ft 2 kts 114°
2026-04-15 11:38 50.04737 8.56736 356 ft 0 kts 115°